| time (UTC) | temp F | wind direction | speed MPH | gust MPH | rain 1hr in | rain 24hr in | rain mn in | humidity % | barometer mb |
| 20260506211007 | 61 | 252 | 1.0 | 5.0 | 0.05 | 0.28 | 0.28 | 94 | 1004.5 |
| 20260506210506 | 61 | 202 | 2.0 | 7.0 | 0.05 | 0.28 | 0.28 | 94 | 1004.5 |
| 20260506210009 | 61 | 230 | 2.0 | 7.0 | 0.06 | 0.28 | 0.28 | 94 | 1004.6 |
| 20260506205505 | 61 | 179 | 1.0 | 7.0 | 0.06 | 0.27 | 0.27 | 94 | 1004.6 |
| 20260506205005 | 61 | 200 | 2.0 | 8.0 | 0.06 | 0.27 | 0.27 | 94 | 1004.4 |
| 20260506204505 | 61 | 242 | 2.0 | 8.0 | 0.05 | 0.26 | 0.26 | 94 | 1004.6 |
| 20260506204004 | 61 | 115 | 2.0 | 5.0 | 0.05 | 0.26 | 0.26 | 94 | 1004.6 |
| 20260506203508 | 61 | 165 | 1.0 | 4.0 | 0.04 | 0.25 | 0.25 | 93 | 1004.6 |
| 20260506203007 | 62 | 206 | 1.0 | 7.0 | 0.03 | 0.24 | 0.24 | 94 | 1004.7 |
| 20260506202505 | 61 | 242 | 2.0 | 7.0 | 0.03 | 0.24 | 0.24 | 94 | 1004.6 |
| 20260506202004 | 61 | 208 | 2.0 | 6.0 | 0.03 | 0.24 | 0.24 | 94 | 1004.7 |
| 20260506201504 | 62 | 222 | 3.0 | 6.0 | 0.03 | 0.24 | 0.24 | 94 | 1004.7 |
| 20260506201003 | 61 | 166 | 2.0 | 5.0 | 0.02 | 0.23 | 0.23 | 94 | 1004.7 |
| 20260506200505 | 62 | 172 | 1.0 | 6.0 | 0.03 | 0.23 | 0.23 | 94 | 1004.8 |
| 20260506200004 | 61 | 224 | 3.0 | 6.0 | 0.02 | 0.22 | 0.22 | 94 | 1004.9 |
| 20260506195503 | 62 | 239 | 1.0 | 5.0 | 0.01 | 0.21 | 0.21 | 94 | 1005.0 |
| 20260506195003 | 62 | 208 | 1.0 | 4.0 | 0.01 | 0.21 | 0.21 | 94 | 1005.0 |
| 20260506194503 | 62 | 198 | 0.0 | 2.0 | 0.02 | 0.21 | 0.21 | 94 | 1005.0 |
| 20260506194003 | 62 | 263 | 0.0 | 2.0 | 0.02 | 0.21 | 0.21 | 94 | 1005.0 |
| 20260506193502 | 62 | 219 | 0.0 | 6.0 | 0.03 | 0.21 | 0.21 | 94 | 1005.0 |
| 20260506193002 | 62 | 213 | 1.0 | 6.0 | 0.03 | 0.21 | 0.21 | 94 | 1004.9 |
| 20260506192506 | 62 | 224 | 1.0 | 2.0 | 0.04 | 0.21 | 0.21 | 94 | 1004.9 |
| 20260506192002 | 62 | 218 | 1.0 | 6.0 | 0.05 | 0.21 | 0.21 | 94 | 1004.8 |
| 20260506191502 | 62 | 203 | 1.0 | 6.0 | 0.06 | 0.21 | 0.21 | 94 | 1004.7 |
| 20260506191002 | 62 | 226 | 1.0 | 4.0 | 0.07 | 0.20 | 0.20 | 94 | 1004.6 |
| 20260506190502 | 62 | 161 | 1.0 | 3.0 | 0.10 | 0.20 | 0.20 | 93 | 1004.6 |
| 20260506185559 | 62 | 182 | 0.0 | 4.0 | 0.13 | 0.20 | 0.20 | 93 | 1005.1 |
| 20260506185059 | 62 | 188 | 1.0 | 4.0 | 0.14 | 0.20 | 0.20 | 93 | 1005.0 |
| 20260506184559 | 62 | 185 | 0.0 | 4.0 | 0.13 | 0.19 | 0.19 | 93 | 1005.1 |
| 20260506184058 | 62 | 209 | 0.0 | 1.0 | 0.14 | 0.19 | 0.19 | 93 | 1005.1 |
| 20260506183558 | 62 | 202 | 0.0 | 1.0 | 0.15 | 0.18 | 0.18 | 93 | 1005.4 |
| 20260506183058 | 62 | 202 | 0.0 | 1.0 | 0.16 | 0.18 | 0.18 | 93 | 1005.5 |
| 20260506182557 | 62 | 202 | 0.0 | 2.0 | 0.16 | 0.17 | 0.17 | 93 | 1005.5 |
| 20260506182056 | 62 | 271 | 0.0 | 2.0 | 0.17 | 0.17 | 0.17 | 92 | 1005.5 |
| 20260506181556 | 62 | 275 | 0.0 | 2.0 | 0.16 | 0.16 | 0.16 | 92 | 1005.7 |
| 20260506181056 | 62 | 219 | 0.0 | 2.0 | 0.13 | 0.13 | 0.13 | 91 | 1005.7 |
| 20260506180557 | 63 | 212 | 0.0 | 2.0 | 0.10 | 0.10 | 0.10 | 91 | 1005.7 |
| 20260506180104 | 63 | 169 | 0.0 | 0.0 | 0.08 | 0.08 | 0.08 | 91 | 1005.6 |
| 20260506175554 | 63 | 169 | 0.0 | 0.0 | 0.07 | 0.07 | 0.07 | 90 | 1005.7 |
| 20260506175058 | 64 | 169 | 0.0 | 1.0 | 0.06 | 0.06 | 0.06 | 89 | 1005.9 |
| 20260506174556 | 64 | 169 | 0.0 | 2.0 | 0.06 | 0.06 | 0.06 | 88 | 1005.8 |
| 20260506174054 | 64 | 102 | 0.0 | 4.0 | 0.05 | 0.05 | 0.05 | 86 | 1005.7 |
| 20260506173553 | 65 | 213 | 0.0 | 4.0 | 0.03 | 0.03 | 0.03 | 84 | 1005.9 |
| 20260506173058 | 66 | 186 | 0.0 | 3.0 | 0.02 | 0.02 | 0.02 | 82 | 1005.8 |
| 20260506172552 | 67 | 130 | 1.0 | 4.0 | 0.01 | 0.01 | 0.01 | 78 | 1005.5 |
| 20260506172052 | 69 | 202 | 1.0 | 4.0 | 0.00 | 0.00 | 0.00 | 73 | 1005.5 |
| 20260506171557 | 69 | 211 | 1.0 | 5.0 | 0.00 | 0.00 | 0.00 | 68 | 1005.4 |
| 20260506171054 | 70 | 144 | 0.0 | 7.0 | 0.00 | 0.00 | 0.00 | 66 | 1005.2 |
| 20260506170552 | 70 | 206 | 1.0 | 7.0 | 0.00 | 0.00 | 0.00 | 64 | 1005.4 |
| 20260506170103 | 70 | 223 | 3.0 | 8.0 | 0.00 | 0.00 | 0.00 | 63 | 1005.4 |
| 20260506165551 | 70 | 245 | 2.0 | 8.0 | 0.00 | 0.00 | 0.00 | 63 | 1005.4 |
| 20260506165051 | 70 | 211 | 2.0 | 8.0 | 0.00 | 0.00 | 0.00 | 62 | 1005.6 |
| 20260506164551 | 70 | 238 | 1.0 | 4.0 | 0.00 | 0.00 | 0.00 | 63 | 1005.6 |
| 20260506164053 | 71 | 236 | 1.0 | 5.0 | 0.00 | 0.00 | 0.00 | 63 | 1005.6 |
| 20260506163549 | 71 | 244 | 1.0 | 5.0 | 0.00 | 0.00 | 0.00 | 63 | 1005.7 |
| 20260506163109 | 71 | 230 | 1.0 | 5.0 | 0.00 | 0.00 | 0.00 | 63 | 1005.7 |
| 20260506162546 | 71 | 215 | 2.0 | 5.0 | 0.00 | 0.00 | 0.00 | 64 | 1005.8 |
| 20260506162048 | 71 | 173 | 1.0 | 8.0 | 0.00 | 0.00 | 0.00 | 64 | 1005.9 |
| 20260506161546 | 71 | 168 | 3.0 | 8.0 | 0.00 | 0.00 | 0.00 | 64 | 1006.0 |
| 20260506161044 | 70 | 200 | 2.0 | 7.0 | 0.00 | 0.00 | 0.00 | 65 | 1006.0 |
| 20260506160544 | 71 | 227 | 4.0 | 7.0 | 0.00 | 0.00 | 0.00 | 65 | 1006.2 |
| 20260506160042 | 70 | 169 | 2.0 | 5.0 | 0.00 | 0.00 | 0.00 | 66 | 1006.3 |
| 20260506155543 | 70 | 181 | 1.0 | 6.0 | 0.00 | 0.00 | 0.00 | 66 | 1006.5 |
| 20260506155040 | 70 | 237 | 0.0 | 9.0 | 0.00 | 0.00 | 0.00 | 66 | 1006.6 |
| 20260506154553 | 69 | 197 | 3.0 | 8.0 | 0.00 | 0.00 | 0.00 | 67 | 1006.7 |
| 20260506154038 | 69 | 278 | 4.0 | 8.0 | 0.00 | 0.00 | 0.00 | 67 | 1006.8 |
| 20260506153537 | 69 | 195 | 3.0 | 5.0 | 0.00 | 0.00 | 0.00 | 67 | 1006.9 |
| 20260506153048 | 69 | 219 | 1.0 | 5.0 | 0.00 | 0.00 | 0.00 | 66 | 1006.8 |
| 20260506152537 | 69 | 171 | 1.0 | 7.0 | 0.00 | 0.00 | 0.00 | 68 | 1007.1 |
| 20260506152038 | 69 | 197 | 3.0 | 7.0 | 0.00 | 0.00 | 0.00 | 67 | 1007.1 |
| 20260506151537 | 69 | 231 | 1.0 | 11.0 | 0.00 | 0.00 | 0.00 | 68 | 1007.2 |
| 20260506151038 | 69 | 265 | 2.0 | 7.0 | 0.00 | 0.00 | 0.00 | 67 | 1007.2 |
| 20260506150537 | 69 | 213 | 3.0 | 10.0 | 0.00 | 0.00 | 0.00 | 67 | 1007.3 |
| 20260506150036 | 69 | 265 | 4.0 | 8.0 | 0.00 | 0.00 | 0.00 | 68 | 1007.2 |
| 20260506145536 | 69 | 213 | 3.0 | 6.0 | 0.00 | 0.00 | 0.00 | 69 | 1007.1 |
| 20260506145035 | 69 | 251 | 2.0 | 6.0 | 0.00 | 0.00 | 0.00 | 70 | 1007.1 |
| 20260506144534 | 68 | 243 | 1.0 | 8.0 | 0.00 | 0.00 | 0.00 | 69 | 1007.3 |
| 20260506144034 | 69 | 254 | 3.0 | 8.0 | 0.00 | 0.00 | 0.00 | 69 | 1007.3 |
| 20260506143537 | 69 | 203 | 1.0 | 6.0 | 0.00 | 0.00 | 0.00 | 69 | 1007.1 |
| 20260506143045 | 68 | 211 | 1.0 | 6.0 | 0.00 | 0.00 | 0.00 | 70 | 1007.1 |
| 20260506142531 | 68 | 211 | 1.0 | 6.0 | 0.00 | 0.00 | 0.00 | 71 | 1007.0 |
| 20260506142030 | 67 | 186 | 1.0 | 6.0 | 0.00 | 0.00 | 0.00 | 73 | 1007.0 |
| 20260506141534 | 67 | 182 | 1.0 | 6.0 | 0.00 | 0.00 | 0.00 | 72 | 1007.1 |
| 20260506141031 | 67 | 177 | 2.0 | 7.0 | 0.00 | 0.00 | 0.00 | 73 | 1007.1 |
| 20260506140530 | 67 | 200 | 3.0 | 7.0 | 0.00 | 0.00 | 0.00 | 72 | 1006.9 |
| 20260506140028 | 67 | 165 | 1.0 | 5.0 | 0.00 | 0.00 | 0.00 | 73 | 1006.8 |
| 20260506135526 | 67 | 219 | 2.0 | 6.0 | 0.00 | 0.00 | 0.00 | 72 | 1006.8 |
| 20260506135026 | 67 | 208 | 3.0 | 7.0 | 0.00 | 0.00 | 0.00 | 73 | 1007.1 |
| 20260506134525 | 67 | 205 | 3.0 | 7.0 | 0.00 | 0.00 | 0.00 | 74 | 1007.0 |
| 20260506134025 | 66 | 202 | 1.0 | 3.0 | 0.00 | 0.00 | 0.00 | 74 | 1007.0 |
| 20260506133523 | 66 | 241 | 2.0 | 6.0 | 0.00 | 0.00 | 0.00 | 75 | 1007.2 |
| 20260506133021 | 65 | 190 | 1.0 | 5.0 | 0.00 | 0.00 | 0.00 | 75 | 1007.3 |
| 20260506132520 | 65 | 267 | 1.0 | 9.0 | 0.00 | 0.00 | 0.00 | 74 | 1007.3 |
| 20260506132019 | 65 | 252 | 3.0 | 9.0 | 0.00 | 0.00 | 0.00 | 75 | 1007.4 |
| 20260506131519 | 65 | 236 | 3.0 | 7.0 | 0.00 | 0.00 | 0.00 | 75 | 1007.5 |
| 20260506131021 | 65 | 161 | 3.0 | 8.0 | 0.00 | 0.00 | 0.00 | 75 | 1007.6 |
| 20260506130519 | 65 | 221 | 3.0 | 8.0 | 0.00 | 0.00 | 0.00 | 75 | 1007.6 |
| 20260506130018 | 65 | 265 | 3.0 | 6.0 | 0.00 | 0.00 | 0.00 | 75 | 1007.6 |
| 20260506125517 | 65 | 181 | 1.0 | 5.0 | 0.00 | 0.00 | 0.00 | 75 | 1007.5 |
| 20260506125017 | 65 | 168 | 2.0 | 8.0 | 0.00 | 0.00 | 0.00 | 75 | 1007.5 |
| 20260506124517 | 65 | 215 | 3.0 | 8.0 | 0.00 | 0.00 | 0.00 | 75 | 1007.6 |
| 20260506124016 | 65 | 175 | 3.0 | 6.0 | 0.00 | 0.00 | 0.00 | 75 | 1007.7 |
| 20260506123515 | 65 | 177 | 1.0 | 4.0 | 0.00 | 0.00 | 0.00 | 75 | 1007.5 |
| 20260506123014 | 64 | 91 | 1.0 | 5.0 | 0.00 | 0.00 | 0.00 | 77 | 1007.5 |
| 20260506122513 | 64 | 215 | 1.0 | 5.0 | 0.00 | 0.00 | 0.00 | 77 | 1007.3 |
| 20260506122012 | 63 | 201 | 2.0 | 5.0 | 0.00 | 0.00 | 0.00 | 77 | 1007.4 |
| 20260506121512 | 63 | 184 | 2.0 | 6.0 | 0.00 | 0.00 | 0.00 | 77 | 1007.5 |
| 20260506121012 | 63 | 249 | 2.0 | 7.0 | 0.00 | 0.00 | 0.00 | 77 | 1007.7 |
| 20260506120512 | 64 | 201 | 3.0 | 8.0 | 0.00 | 0.00 | 0.00 | 76 | 1007.7 |
| 20260506120011 | 64 | 213 | 3.0 | 7.0 | 0.00 | 0.00 | 0.00 | 78 | 1007.7 |
| 20260506115510 | 63 | 187 | 2.0 | 7.0 | 0.00 | 0.00 | 0.00 | 79 | 1007.6 |
| 20260506115008 | 62 | 203 | 1.0 | 5.0 | 0.00 | 0.00 | 0.00 | 80 | 1007.8 |
| 20260506114510 | 62 | 195 | 1.0 | 5.0 | 0.00 | 0.00 | 0.00 | 79 | 1007.9 |
| 20260506114006 | 62 | 211 | 1.0 | 8.0 | 0.00 | 0.00 | 0.00 | 80 | 1008.0 |
| 20260506113506 | 61 | 206 | 1.0 | 8.0 | 0.00 | 0.00 | 0.00 | 80 | 1007.9 |
| 20260506113006 | 61 | 190 | 2.0 | 5.0 | 0.00 | 0.00 | 0.00 | 81 | 1008.0 |
| 20260506112505 | 61 | 188 | 1.0 | 4.0 | 0.00 | 0.00 | 0.00 | 81 | 1007.9 |
| 20260506112003 | 61 | 221 | 2.0 | 6.0 | 0.00 | 0.00 | 0.00 | 81 | 1008.1 |
| 20260506111506 | 61 | 180 | 1.0 | 6.0 | 0.00 | 0.00 | 0.00 | 81 | 1008.1 |
| 20260506111003 | 61 | 254 | 1.0 | 3.0 | 0.00 | 0.00 | 0.00 | 81 | 1008.1 |
| 20260506110504 | 61 | 223 | 1.0 | 3.0 | 0.00 | 0.00 | 0.00 | 81 | 1008.0 |
| 20260506110002 | 60 | 227 | 1.0 | 4.0 | 0.00 | 0.00 | 0.00 | 82 | 1008.0 |
| 20260506105602 | 60 | 238 | 1.0 | 6.0 | 0.00 | 0.00 | 0.00 | 82 | 1008.0 |
| 20260506105001 | 60 | 246 | 2.0 | 6.0 | 0.00 | 0.00 | 0.00 | 83 | 1008.1 |
| 20260506104600 | 59 | 224 | 1.0 | 4.0 | 0.00 | 0.00 | 0.00 | 84 | 1008.1 |
| 20260506104058 | 59 | 180 | 0.0 | 4.0 | 0.00 | 0.00 | 0.00 | 84 | 1008.1 |
| 20260506103557 | 58 | 219 | 0.0 | 2.0 | 0.00 | 0.00 | 0.00 | 84 | 1008.2 |
| 20260506103057 | 58 | 222 | 1.0 | 4.0 | 0.00 | 0.00 | 0.00 | 84 | 1008.1 |
| 20260506102557 | 58 | 208 | 1.0 | 5.0 | 0.00 | 0.00 | 0.00 | 85 | 1008.0 |
| 20260506102057 | 58 | 229 | 2.0 | 5.0 | 0.00 | 0.00 | 0.00 | 85 | 1008.0 |
| 20260506101604 | 58 | 196 | 0.0 | 1.0 | 0.00 | 0.00 | 0.00 | 85 | 1007.9 |
| 20260506101055 | 58 | 190 | 0.0 | 2.0 | 0.00 | 0.00 | 0.00 | 86 | 1007.9 |
| 20260506100555 | 58 | 190 | 0.0 | 2.0 | 0.00 | 0.00 | 0.00 | 86 | 1008.1 |
| 20260506100053 | 57 | 189 | 0.0 | 2.0 | 0.00 | 0.00 | 0.00 | 86 | 1008.0 |
| 20260506095556 | 57 | 189 | 0.0 | 4.0 | 0.00 | 0.00 | 0.00 | 86 | 1008.1 |
| 20260506095053 | 57 | 182 | 0.0 | 2.0 | 0.00 | 0.00 | 0.00 | 86 | 1008.2 |
| 20260506094615 | 57 | 194 | 0.0 | 2.0 | 0.00 | 0.00 | 0.00 | 86 | 1008.1 |
| 20260506094052 | 57 | 194 | 0.0 | 2.0 | 0.00 | 0.00 | 0.00 | 87 | 1008.0 |
| 20260506093551 | 57 | 194 | 0.0 | 2.0 | 0.00 | 0.00 | 0.00 | 86 | 1007.9 |
| 20260506093055 | 57 | 209 | 0.0 | 2.0 | 0.00 | 0.00 | 0.00 | 87 | 1007.9 |
| 20260506092551 | 56 | 186 | 0.0 | 2.0 | 0.00 | 0.00 | 0.00 | 87 | 1007.8 |
| 20260506092050 | 56 | 184 | 0.0 | 4.0 | 0.00 | 0.00 | 0.00 | 86 | 1007.9 |
| 20260506091550 | 56 | 206 | 0.0 | 2.0 | 0.00 | 0.00 | 0.00 | 86 | 1008.1 |
| 20260506091049 | 56 | 206 | 0.0 | 2.0 | 0.00 | 0.00 | 0.00 | 86 | 1008.0 |
| 20260506090549 | 56 | 206 | 0.0 | 2.0 | 0.00 | 0.00 | 0.00 | 86 | 1007.9 |
| 20260506090048 | 57 | 189 | 0.0 | 4.0 | 0.00 | 0.00 | 0.00 | 85 | 1007.8 |
| 20260506085548 | 57 | 189 | 0.0 | 4.0 | 0.00 | 0.00 | 0.00 | 85 | 1007.9 |
| 20260506085048 | 57 | 194 | 0.0 | 1.0 | 0.00 | 0.00 | 0.00 | 85 | 1008.0 |
| 20260506084548 | 57 | 186 | 0.0 | 2.0 | 0.00 | 0.00 | 0.00 | 85 | 1008.0 |
| 20260506084051 | 57 | 180 | 0.0 | 2.0 | 0.00 | 0.00 | 0.00 | 84 | 1007.9 |
| 20260506083546 | 57 | 180 | 0.0 | 2.0 | 0.00 | 0.00 | 0.00 | 84 | 1008.1 |
| 20260506083046 | 57 | 180 | 0.0 | 2.0 | 0.00 | 0.00 | 0.00 | 83 | 1008.0 |
| 20260506082550 | 57 | 84 | 0.0 | 1.0 | 0.00 | 0.00 | 0.00 | 84 | 1008.0 |
| 20260506082045 | 57 | 84 | 0.0 | 1.0 | 0.00 | 0.00 | 0.00 | 83 | 1007.9 |
| 20260506081545 | 57 | 60 | 0.0 | 1.0 | 0.00 | 0.00 | 0.00 | 83 | 1007.9 |
| 20260506081046 | 57 | 60 | 0.0 | 1.0 | 0.00 | 0.00 | 0.00 | 83 | 1007.9 |
| 20260506080546 | 57 | 60 | 0.0 | 2.0 | 0.00 | 0.00 | 0.00 | 83 | 1007.9 |
| 20260506073046 | 57 | 214 | 0.0 | 1.0 | 0.00 | 0.00 | 0.00 | 81 | 1007.8 |
| 20260506072542 | 57 | 214 | 0.0 | 2.0 | 0.00 | 0.00 | 0.00 | 82 | 1007.7 |
| 20260506072042 | 57 | 214 | 1.0 | 2.0 | 0.00 | 0.00 | 0.00 | 81 | 1007.7 |
| 20260506071542 | 57 | 211 | 0.0 | 1.0 | 0.00 | 0.00 | 0.00 | 81 | 1007.6 |
| 20260506071041 | 57 | 211 | 0.0 | 1.0 | 0.00 | 0.00 | 0.00 | 81 | 1007.6 |
| 20260506070642 | 57 | 211 | 0.0 | 1.0 | 0.00 | 0.00 | 0.00 | 81 | 1007.6 |
| 20260506062034 | 59 | 211 | 0.0 | 0.0 | 0.00 | 0.00 | 0.00 | 77 | 1007.7 |
| 20260506061536 | 59 | 211 | 0.0 | 1.0 | 0.00 | 0.00 | 0.00 | 77 | 1007.6 |
| 20260506061033 | 59 | 211 | 0.0 | 1.0 | 0.00 | 0.00 | 0.00 | 76 | 1007.5 |
| 20260506060530 | 59 | 211 | 0.0 | 1.0 | 0.00 | 0.00 | 0.00 | 76 | 1007.5 |
| 20260506051022 | 61 | 197 | 0.0 | 1.0 | 0.00 | 0.00 | 0.00 | 71 | 1007.6 |
| 20260506050525 | 61 | 197 | 0.0 | 1.0 | 0.00 | 0.00 | 0.00 | 71 | 1007.6 |
| 20260506045018 | 62 | 265 | 0.0 | 2.0 | 0.00 | 0.00 | 0.00 | 69 | 1007.9 |
| 20260506044524 | 62 | 265 | 0.0 | 2.0 | 0.00 | 0.00 | 0.00 | 69 | 1007.8 |
| 20260506044018 | 62 | 187 | 0.0 | 2.0 | 0.00 | 0.00 | 0.00 | 68 | 1007.8 |
| 20260506043517 | 62 | 182 | 0.0 | 2.0 | 0.00 | 0.00 | 0.00 | 67 | 1007.9 |
| 20260506043016 | 63 | 182 | 0.0 | 2.0 | 0.00 | 0.00 | 0.00 | 67 | 1007.9 |
| 20260506042515 | 63 | 197 | 1.0 | 2.0 | 0.00 | 0.00 | 0.00 | 67 | 1007.9 |
| 20260506042018 | 63 | 198 | 0.0 | 5.0 | 0.00 | 0.00 | 0.00 | 66 | 1007.9 |
| 20260506041517 | 63 | 195 | 0.0 | 5.0 | 0.00 | 0.00 | 0.00 | 66 | 1007.8 |
| 20260506041013 | 63 | 238 | 1.0 | 4.0 | 0.00 | 0.00 | 0.00 | 66 | 1007.8 |
| 20260506040512 | 63 | 196 | 1.0 | 4.0 | 0.00 | 0.00 | 0.00 | 66 | 1007.9 |
| 20260506040033 | 63 | 179 | 0.0 | 2.0 | 0.00 | 0.00 | 0.00 | 66 | 1007.8 |
| 20260506035513 | 64 | 197 | 0.0 | 2.0 | 0.00 | 0.00 | 0.00 | 65 | 1007.8 |
| 20260506035013 | 64 | 178 | 0.0 | 6.0 | 0.00 | 0.00 | 0.00 | 65 | 1007.9 |
| 20260506034512 | 64 | 218 | 2.0 | 6.0 | 0.00 | 0.00 | 0.00 | 64 | 1007.8 |
| 20260506034011 | 64 | 209 | 0.0 | 4.0 | 0.00 | 0.00 | 0.00 | 64 | 1007.9 |
| 20260506033511 | 64 | 210 | 1.0 | 2.0 | 0.00 | 0.00 | 0.00 | 64 | 1007.8 |
| 20260506033011 | 65 | 247 | 1.0 | 4.0 | 0.00 | 0.00 | 0.00 | 63 | 1007.7 |
| 20260506032511 | 65 | 213 | 1.0 | 6.0 | 0.00 | 0.00 | 0.00 | 63 | 1007.8 |
| 20260506032011 | 65 | 225 | 1.0 | 6.0 | 0.00 | 0.00 | 0.00 | 63 | 1007.7 |
| 20260506031526 | 65 | 192 | 0.0 | 5.0 | 0.00 | 0.00 | 0.00 | 62 | 1007.6 |
| 20260506031013 | 65 | 207 | 1.0 | 3.0 | 0.00 | 0.00 | 0.00 | 62 | 1007.7 |
| 20260506030511 | 65 | 243 | 0.0 | 4.0 | 0.00 | 0.00 | 0.00 | 62 | 1007.8 |
| 20260506030010 | 65 | 213 | 1.0 | 5.0 | 0.00 | 0.00 | 0.00 | 62 | 1007.7 |
| 20260506025510 | 66 | 194 | 0.0 | 5.0 | 0.00 | 0.00 | 0.00 | 62 | 1007.7 |
| 20260506025011 | 66 | 191 | 0.0 | 4.0 | 0.00 | 0.00 | 0.00 | 62 | 1007.7 |
| 20260506024517 | 66 | 191 | 1.0 | 4.0 | 0.00 | 0.00 | 0.00 | 61 | 1007.6 |
| 20260506024009 | 66 | 205 | 0.0 | 4.0 | 0.00 | 0.00 | 0.00 | 61 | 1007.7 |
| 20260506023509 | 66 | 184 | 1.0 | 4.0 | 0.00 | 0.00 | 0.00 | 61 | 1007.6 |
| 20260506023011 | 66 | 200 | 0.0 | 4.0 | 0.00 | 0.00 | 0.00 | 62 | 1007.5 |
| 20260506022509 | 66 | 200 | 1.0 | 4.0 | 0.00 | 0.00 | 0.00 | 61 | 1007.5 |
| 20260506022009 | 66 | 200 | 1.0 | 2.0 | 0.00 | 0.00 | 0.00 | 61 | 1007.6 |
| 20260506021511 | 66 | 186 | 1.0 | 2.0 | 0.00 | 0.00 | 0.00 | 61 | 1007.6 |
| 20260506021009 | 67 | 109 | 0.0 | 4.0 | 0.00 | 0.00 | 0.00 | 60 | 1007.6 |
| 20260506020511 | 67 | 189 | 0.0 | 4.0 | 0.00 | 0.00 | 0.00 | 59 | 1007.5 |
| 20260506020008 | 67 | 199 | 1.0 | 4.0 | 0.00 | 0.00 | 0.00 | 60 | 1007.5 |
| 20260506015508 | 67 | 178 | 0.0 | 5.0 | 0.00 | 0.00 | 0.00 | 60 | 1007.5 |
| 20260506015008 | 67 | 217 | 1.0 | 5.0 | 0.00 | 0.00 | 0.00 | 60 | 1007.5 |
| 20260506014512 | 67 | 207 | 1.0 | 5.0 | 0.00 | 0.00 | 0.00 | 59 | 1007.5 |
| 20260506014007 | 68 | 210 | 2.0 | 5.0 | 0.00 | 0.00 | 0.00 | 57 | 1007.5 |
| 20260506013512 | 68 | 205 | 0.0 | 4.0 | 0.00 | 0.00 | 0.00 | 57 | 1007.5 |
| 20260506013007 | 69 | 183 | 1.0 | 5.0 | 0.00 | 0.00 | 0.00 | 56 | 1007.4 |
| 20260506012508 | 69 | 198 | 1.0 | 3.0 | 0.00 | 0.00 | 0.00 | 55 | 1007.3 |
| 20260506012006 | 69 | 253 | 1.0 | 3.0 | 0.00 | 0.00 | 0.00 | 55 | 1007.2 |
| 20260506011507 | 70 | 187 | 1.0 | 4.0 | 0.00 | 0.00 | 0.00 | 55 | 1007.1 |
| 20260506011006 | 70 | 200 | 0.0 | 6.0 | 0.00 | 0.00 | 0.00 | 54 | 1007.1 |
| 20260506010506 | 70 | 179 | 2.0 | 6.0 | 0.00 | 0.00 | 0.00 | 54 | 1007.2 |
| 20260506010012 | 70 | 244 | 1.0 | 5.0 | 0.00 | 0.00 | 0.00 | 55 | 1007.2 |
| 20260506005506 | 71 | 180 | 0.0 | 4.0 | 0.00 | 0.00 | 0.00 | 54 | 1007.2 |
| 20260506005009 | 71 | 180 | 1.0 | 3.0 | 0.00 | 0.00 | 0.00 | 52 | 1007.2 |
| 20260506004511 | 72 | 185 | 0.0 | 5.0 | 0.00 | 0.00 | 0.00 | 52 | 1007.2 |
| 20260506004009 | 72 | 257 | 2.0 | 6.0 | 0.00 | 0.00 | 0.00 | 49 | 1007.2 |
| 20260506003507 | 72 | 250 | 3.0 | 6.0 | 0.00 | 0.00 | 0.00 | 50 | 1007.0 |
| 20260506003008 | 72 | 259 | 1.0 | 6.0 | 0.00 | 0.00 | 0.00 | 49 | 1006.6 |
| 20260506002505 | 72 | 238 | 3.0 | 6.0 | 0.00 | 0.00 | 0.00 | 49 | 1006.4 |
| 20260506002008 | 72 | 227 | 2.0 | 6.0 | 0.00 | 0.00 | 0.00 | 49 | 1006.1 |
| 20260506001504 | 73 | 219 | 2.0 | 6.0 | 0.00 | 0.00 | 0.00 | 49 | 1005.9 |
| 20260506001004 | 73 | 295 | 2.0 | 6.0 | 0.00 | 0.00 | 0.00 | 48 | 1005.8 |
| 20260506000505 | 73 | 212 | 4.0 | 6.0 | 0.00 | 0.00 | 0.00 | 48 | 1005.5 |
| 20260506000003 | 74 | 52 | 1.0 | 7.0 | 0.00 | 0.00 | 0.00 | 47 | 1005.4 |
| 20260505235503 | 74 | 190 | 2.0 | 7.0 | 0.00 | 0.00 | 0.00 | 47 | 1005.3 |
| 20260505235003 | 74 | 231 | 3.0 | 7.0 | 0.00 | 0.00 | 0.00 | 46 | 1005.2 |
| 20260505234503 | 74 | 264 | 4.0 | 7.0 | 0.00 | 0.00 | 0.00 | 45 | 1005.3 |
| 20260505234003 | 75 | 159 | 2.0 | 7.0 | 0.00 | 0.00 | 0.00 | 44 | 1005.1 |
| 20260505233502 | 75 | 161 | 3.0 | 9.0 | 0.00 | 0.00 | 0.00 | 43 | 1005.0 |
| 20260505233002 | 75 | 250 | 3.0 | 9.0 | 0.00 | 0.00 | 0.00 | 43 | 1004.8 |
| 20260505232602 | 76 | 166 | 4.0 | 8.0 | 0.00 | 0.00 | 0.00 | 43 | 1004.6 |
| 20260505232002 | 76 | 178 | 1.0 | 7.0 | 0.00 | 0.00 | 0.00 | 41 | 1004.5 |
| 20260505231501 | 76 | 217 | 4.0 | 7.0 | 0.00 | 0.00 | 0.00 | 41 | 1004.4 |
| 20260505231002 | 77 | 220 | 3.0 | 8.0 | 0.00 | 0.00 | 0.00 | 40 | 1004.4 |
| 20260505230502 | 77 | 250 | 4.0 | 9.0 | 0.00 | 0.00 | 0.00 | 39 | 1004.3 |
| 20260505230002 | 77 | 139 | 4.0 | 9.0 | 0.00 | 0.00 | 0.00 | 40 | 1004.2 |
| 20260505225503 | 77 | 206 | 3.0 | 7.0 | 0.00 | 0.00 | 0.00 | 40 | 1004.2 |
| 20260505225101 | 77 | 244 | 2.0 | 5.0 | 0.00 | 0.00 | 0.00 | 40 | 1004.2 |
| 20260505224601 | 77 | 214 | 1.0 | 6.0 | 0.00 | 0.00 | 0.00 | 39 | 1004.1 |
| 20260505224100 | 78 | 167 | 3.0 | 9.0 | 0.00 | 0.00 | 0.00 | 38 | 1004.1 |
| 20260505223600 | 78 | 203 | 3.0 | 13.0 | 0.00 | 0.00 | 0.00 | 38 | 1004.0 |
| 20260505223101 | 79 | 237 | 5.0 | 13.0 | 0.00 | 0.00 | 0.00 | 36 | 1003.9 |
| 20260505222559 | 79 | 174 | 5.0 | 15.0 | 0.00 | 0.00 | 0.00 | 36 | 1003.9 |
| 20260505222059 | 79 | 202 | 6.0 | 15.0 | 0.00 | 0.00 | 0.00 | 35 | 1003.8 |
| 20260505221600 | 80 | 242 | 5.0 | 10.0 | 0.00 | 0.00 | 0.00 | 35 | 1003.6 |
| 20260505221059 | 80 | 229 | 3.0 | 9.0 | 0.00 | 0.00 | 0.00 | 37 | 1003.6 |
| 20260505220600 | 80 | 204 | 3.0 | 9.0 | 0.00 | 0.00 | 0.00 | 36 | 1003.5 |
| 20260505220059 | 80 | 184 | 1.0 | 7.0 | 0.00 | 0.00 | 0.00 | 34 | 1003.4 |
| 20260505215558 | 80 | 229 | 1.0 | 9.0 | 0.00 | 0.00 | 0.00 | 36 | 1003.4 |
| 20260505215158 | 80 | 203 | 3.0 | 10.0 | 0.00 | 0.00 | 0.00 | 35 | 1003.4 |
| 20260505214600 | 80 | 263 | 5.0 | 11.0 | 0.00 | 0.00 | 0.00 | 34 | 1003.4 |
| 20260505214058 | 81 | 235 | 4.0 | 16.0 | 0.00 | 0.00 | 0.00 | 34 | 1003.3 |
| 20260505213557 | 81 | 240 | 6.0 | 11.0 | 0.00 | 0.00 | 0.00 | 33 | 1003.3 |
| 20260505213059 | 81 | 175 | 3.0 | 10.0 | 0.00 | 0.00 | 0.00 | 34 | 1003.2 |
| 20260505212657 | 81 | 220 | 3.0 | 10.0 | 0.00 | 0.00 | 0.00 | 34 | 1003.0 |
| 20260505212056 | 81 | 174 | 4.0 | 11.0 | 0.00 | 0.00 | 0.00 | 34 | 1003.1 |
| 20260505211609 | 81 | 175 | 5.0 | 11.0 | 0.00 | 0.00 | 0.00 | 32 | 1003.0 |